1 Minute Report
Date Time Wind Direction Wind Speed Wind Gust Wind Variable Altimeter Temperature Dewpoint Relative Humidity Visibility Ceiling Precip Present Weather Density Alt Wind Chill Heat Index
18/11/21 08:53 220 08 N/A N/A 30.21 27(F), -3(C) 24(F), -4(C) 93% 10 CLR N/A N/A N/A 19 F N/A 3093
18/11/21 08:52 220 08 N/A N/A 30.21 27(F), -3(C) 25(F), -4(C) 93% 10 CLR N/A N/A N/A 19 F N/A 3092
18/11/21 08:51 220 08 N/A N/A 30.21 27(F), -3(C) 25(F), -4(C) 93% 10 CLR N/A N/A N/A 19 F N/A 3091
18/11/21 08:50 220 08 N/A N/A 30.21 27(F), -3(C) 25(F), -4(C) 93% 10 CLR N/A N/A N/A 19 F N/A 3090
18/11/21 08:49 220 08 N/A N/A 30.21 27(F), -3(C) 25(F), -4(C) 93% 10 CLR N/A N/A N/A 19 F N/A 3089
18/11/21 08:48 220 08 N/A N/A 30.21 27(F), -3(C) 25(F), -4(C) 93% 10 CLR N/A N/A N/A 19 F N/A 3088
18/11/21 08:47 220 08 N/A N/A 30.21 27(F), -3(C) 25(F), -4(C) 93% 10 CLR N/A N/A N/A 19 F N/A 3087
18/11/21 08:46 220 09 N/A N/A 30.21 27(F), -3(C) 25(F), -4(C) 93% 10 CLR N/A N/A N/A 18 F N/A 3086
18/11/21 08:45 220 10 N/A N/A 30.21 27(F), -3(C) 25(F), -4(C) 93% 10 CLR N/A N/A N/A 18 F N/A 3085
18/11/21 08:44 220 09 N/A N/A 30.21 27(F), -3(C) 25(F), -4(C) 93% 10 CLR N/A N/A N/A 18 F N/A 3084
18/11/21 08:43 220 08 N/A N/A 30.21 27(F), -3(C) 25(F), -4(C) 93% 10 CLR N/A N/A N/A 19 F N/A 3083
18/11/21 08:42 220 08 N/A N/A 30.21 27(F), -3(C) 25(F), -4(C) 93% 10 CLR N/A N/A N/A 19 F N/A 3082
18/11/21 08:41 220 08 N/A N/A 30.21 27(F), -3(C) 25(F), -4(C) 93% 10 CLR N/A N/A N/A 19 F N/A 3081
18/11/21 08:40 230 09 N/A N/A 30.21 27(F), -3(C) 25(F), -4(C) 93% 10 CLR N/A N/A N/A 18 F N/A 3080
18/11/21 08:39 230 11 N/A N/A 30.21 27(F), -3(C) 25(F), -4(C) 93% 10 CLR N/A N/A N/A 17 F N/A 3079
18/11/21 08:38 230 10 N/A N/A 30.21 27(F), -3(C) 25(F), -4(C) 93% 10 CLR N/A N/A N/A 18 F N/A 3078
18/11/21 08:37 230 09 N/A N/A 30.21 27(F), -3(C) 25(F), -4(C) 93% 10 CLR N/A N/A N/A 18 F N/A 3077
18/11/21 08:36 220 09 N/A N/A 30.21 27(F), -3(C) 25(F), -4(C) 93% 10 CLR N/A N/A N/A 18 F N/A 3076
18/11/21 08:35 220 09 N/A N/A 30.21 27(F), -3(C) 25(F), -4(C) 93% 10 CLR N/A N/A N/A 18 F N/A 3075
18/11/21 08:34 220 09 N/A N/A 30.21 27(F), -3(C) 25(F), -4(C) 93% 10 CLR N/A N/A N/A 18 F N/A 3074
18/11/21 08:33 220 09 N/A N/A 30.21 27(F), -3(C) 25(F), -4(C) 93% 10 CLR N/A N/A N/A 18 F N/A 3073
18/11/21 08:32 220 09 N/A N/A 30.21 27(F), -3(C) 25(F), -4(C) 93% 10 CLR N/A N/A N/A 18 F N/A 3072
18/11/21 08:31 220 10 N/A N/A 30.21 27(F), -3(C) 25(F), -4(C) 93% 10 CLR N/A N/A N/A 18 F N/A 3071
18/11/21 08:30 220 10 N/A N/A 30.21 27(F), -3(C) 25(F), -4(C) 93% 10 CLR N/A N/A N/A 18 F N/A 3070
18/11/21 08:29 220 09 N/A N/A 30.21 27(F), -3(C) 25(F), -4(C) 93% 10 CLR N/A N/A N/A 18 F N/A 3069
18/11/21 08:28 230 09 N/A N/A 30.21 27(F), -3(C) 25(F), -4(C) 93% 10 CLR N/A N/A N/A 18 F N/A 3068
18/11/21 08:27 230 09 N/A N/A 30.21 27(F), -3(C) 25(F), -4(C) 93% 10 CLR N/A N/A N/A 18 F N/A 3067
18/11/21 08:26 230 09 N/A N/A 30.21 27(F), -3(C) 25(F), -4(C) 93% 10 CLR N/A N/A N/A 18 F N/A 3066
18/11/21 08:25 230 10 N/A N/A 30.21 27(F), -3(C) 25(F), -4(C) 93% 10 CLR N/A N/A N/A 18 F N/A 3065
18/11/21 08:24 230 10 N/A N/A 30.21 27(F), -3(C) 25(F), -4(C) 93% 10 CLR N/A N/A N/A 18 F N/A 3064
18/11/21 08:23 230 11 N/A N/A 30.21 27(F), -3(C) 25(F), -4(C) 93% 10 CLR N/A N/A N/A 17 F N/A 3063
18/11/21 08:22 230 11 N/A N/A 30.21 27(F), -3(C) 25(F), -4(C) 93% 10 CLR N/A N/A N/A 17 F N/A 3062
18/11/21 08:21 230 10 N/A N/A 30.21 27(F), -3(C) 25(F), -4(C) 93% 10 CLR N/A N/A N/A 18 F N/A 3061
18/11/21 08:20 230 10 N/A N/A 30.21 27(F), -3(C) 25(F), -4(C) 93% 10 CLR N/A N/A N/A 18 F N/A 3060
18/11/21 08:19 230 09 N/A N/A 30.21 27(F), -3(C) 25(F), -4(C) 93% 10 CLR N/A N/A N/A 18 F N/A 3059
18/11/21 08:18 230 09 N/A N/A 30.21 27(F), -3(C) 25(F), -4(C) 93% 10 CLR N/A N/A N/A 18 F N/A 3058
18/11/21 08:17 230 10 N/A N/A 30.21 27(F), -3(C) 25(F), -4(C) 93% 10 CLR N/A N/A N/A 18 F N/A 3057
18/11/21 08:16 230 10 N/A N/A 30.21 27(F), -3(C) 25(F), -4(C) 93% 10 CLR N/A N/A N/A 18 F N/A 3056
18/11/21 08:15 230 10 N/A N/A 30.21 27(F), -3(C) 25(F), -4(C) 93% 10 CLR N/A N/A N/A 18 F N/A 3055
18/11/21 08:14 230 09 N/A N/A 30.21 27(F), -3(C) 25(F), -4(C) 93% 10 CLR N/A N/A N/A 18 F N/A 3054
18/11/21 08:13 230 08 N/A N/A 30.21 27(F), -3(C) 25(F), -4(C) 93% 10 CLR N/A N/A N/A 19 F N/A 3053
18/11/21 08:12 230 08 N/A N/A 30.21 27(F), -3(C) 25(F), -4(C) 93% 10 CLR N/A N/A N/A 19 F N/A 3052
18/11/21 08:11 230 09 N/A N/A 30.21 27(F), -3(C) 25(F), -4(C) 93% 10 CLR N/A N/A N/A 18 F N/A 3051
18/11/21 08:10 240 09 14 N/A 30.21 27(F), -3(C) 25(F), -4(C) 93% 10 CLR N/A N/A N/A 18 F N/A 3050
18/11/21 08:09 230 10 14 N/A 30.21 27(F), -3(C) 25(F), -4(C) 93% 10 CLR N/A N/A N/A 18 F N/A 3049
18/11/21 08:08 240 10 14 N/A 30.21 27(F), -3(C) 25(F), -4(C) 93% 10 CLR N/A N/A N/A 18 F N/A 3048
18/11/21 08:07 240 09 14 N/A 30.22 27(F), -3(C) 25(F), -4(C) 93% 10 SCT025 N/A N/A N/A 18 F N/A 3047
18/11/21 08:06 230 09 14 N/A 30.22 27(F), -3(C) 25(F), -4(C) 93% 10 SCT025 N/A N/A N/A 18 F N/A 3046
18/11/21 08:05 230 10 14 N/A 30.22 27(F), -3(C) 25(F), -4(C) 93% 10 SCT025 N/A N/A N/A 18 F N/A 3045
18/11/21 08:04 240 10 14 N/A 30.22 27(F), -3(C) 25(F), -4(C) 93% 10 SCT025 N/A N/A N/A 18 F N/A 3044
18/11/21 08:03 240 09 14 N/A 30.22 27(F), -3(C) 25(F), -4(C) 93% 10 SCT025 N/A N/A N/A 18 F N/A 3043
18/11/21 08:02 230 10 14 N/A 30.22 27(F), -3(C) 25(F), -4(C) 93% 10 SCT025 N/A N/A N/A 18 F N/A 3042
18/11/21 08:01 230 10 14 N/A 30.22 27(F), -3(C) 25(F), -4(C) 93% 10 SCT025 N/A N/A N/A 18 F N/A 3041
18/11/21 08:00 230 08 N/A N/A 30.22 27(F), -3(C) 25(F), -4(C) 93% 10 SCT023 N/A N/A N/A 19 F N/A 3040
18/11/21 07:59 240 08 N/A N/A 30.22 27(F), -3(C) 25(F), -4(C) 93% 10 SCT023 N/A N/A N/A 19 F N/A 3039
18/11/21 07:58 240 08 N/A N/A 30.22 27(F), -3(C) 25(F), -4(C) 93% 10 SCT023 N/A N/A N/A 19 F N/A 3038
18/11/21 07:57 240 09 N/A N/A 30.22 27(F), -3(C) 25(F), -4(C) 93% 10 SCT023 N/A N/A N/A 18 F N/A 3037
18/11/21 07:56 240 09 N/A N/A 30.22 27(F), -3(C) 25(F), -4(C) 93% 10 SCT023 N/A N/A N/A 18 F N/A 3036
18/11/21 07:55 240 10 N/A N/A 30.22 27(F), -3(C) 25(F), -4(C) 93% 10 SCT023 N/A N/A N/A 18 F N/A 3035
18/11/21 07:54 240 10 N/A N/A 30.22 27(F), -3(C) 25(F), -4(C) 93% 10 SCT023 N/A N/A N/A 18 F N/A 3034
18/11/21 07:53 240 10 N/A N/A 30.22 27(F), -3(C) 25(F), -4(C) 93% 10 SCT023 N/A N/A N/A 18 F N/A 3033
18/11/21 07:52 240 10 N/A N/A 30.22 27(F), -3(C) 25(F), -4(C) 93% 10 SCT023 N/A N/A N/A 18 F N/A 3032
18/11/21 07:51 240 09 N/A N/A 30.22 27(F), -3(C) 25(F), -4(C) 93% 10 SCT023 N/A N/A N/A 18 F N/A 3031
18/11/21 07:50 240 08 N/A N/A 30.22 27(F), -3(C) 25(F), -4(C) 93% 10 SCT023 N/A N/A N/A 19 F N/A 3030
18/11/21 07:49 240 07 N/A N/A 30.22 27(F), -3(C) 25(F), -4(C) 93% 10 SCT023 N/A N/A N/A 19 F N/A 3029
18/11/21 07:48 240 08 N/A N/A 30.22 27(F), -3(C) 25(F), -4(C) 93% 10 BKN023 N/A N/A N/A 19 F N/A 3028
18/11/21 07:47 240 09 N/A N/A 30.22 27(F), -3(C) 25(F), -4(C) 93% 10 BKN023 N/A N/A N/A 18 F N/A 3027
18/11/21 07:46 240 07 14 N/A 30.22 27(F), -3(C) 25(F), -4(C) 93% 10 BKN023 N/A N/A N/A 19 F N/A 3026
18/11/21 07:45 240 06 14 N/A 30.22 27(F), -3(C) 25(F), -4(C) 93% 10 BKN023 N/A N/A N/A 20 F N/A 3025
18/11/21 07:44 240 07 14 N/A 30.22 27(F), -3(C) 25(F), -4(C) 93% 10 BKN023 N/A N/A N/A 19 F N/A 3024
18/11/21 07:43 240 07 14 N/A 30.22 27(F), -3(C) 25(F), -4(C) 93% 10 BKN023 N/A N/A N/A 19 F N/A 3023
18/11/21 07:42 240 09 14 N/A 30.22 27(F), -3(C) 25(F), -4(C) 93% 10 BKN023 N/A N/A N/A 18 F N/A 3022
18/11/21 07:41 240 09 14 N/A 30.22 27(F), -3(C) 25(F), -4(C) 93% 10 BKN023 N/A N/A N/A 18 F N/A 3021
18/11/21 07:40 240 09 14 N/A 30.22 27(F), -3(C) 25(F), -4(C) 93% 10 BKN023 N/A N/A N/A 18 F N/A 3020
18/11/21 07:39 240 09 14 N/A 30.22 27(F), -3(C) 25(F), -4(C) 93% 10 BKN023 N/A N/A N/A 18 F N/A 3019
18/11/21 07:38 250 10 14 N/A 30.22 27(F), -3(C) 25(F), -4(C) 93% 10 BKN023 N/A N/A N/A 18 F N/A 3018
18/11/21 07:37 250 10 14 N/A 30.22 27(F), -3(C) 25(F), -4(C) 93% 10 BKN023 N/A N/A N/A 18 F N/A 3017
18/11/21 07:36 240 09 N/A N/A 30.22 27(F), -3(C) 25(F), -4(C) 93% 10 BKN023 N/A N/A N/A 18 F N/A 3016
18/11/21 07:35 240 08 N/A N/A 30.22 28(F), -2(C) 25(F), -4(C) 86% 10 OVC023 N/A N/A N/A 20 F N/A 3015
18/11/21 07:34 240 09 N/A N/A 30.22 28(F), -2(C) 25(F), -4(C) 86% 10 OVC023 N/A N/A N/A 19 F N/A 3014
18/11/21 07:33 240 10 N/A N/A 30.22 28(F), -2(C) 25(F), -4(C) 86% 10 OVC023 N/A N/A N/A 19 F N/A 3013
18/11/21 07:32 240 10 N/A N/A 30.22 28(F), -2(C) 25(F), -4(C) 86% 10 OVC023 N/A N/A N/A 19 F N/A 3012
18/11/21 07:31 240 10 N/A N/A 30.22 28(F), -2(C) 25(F), -4(C) 86% 10 OVC023 N/A N/A N/A 19 F N/A 3011
18/11/21 07:30 240 09 N/A N/A 30.22 28(F), -2(C) 25(F), -4(C) 86% 10 OVC023 N/A N/A N/A 19 F N/A 3010
18/11/21 07:29 250 09 N/A N/A 30.22 28(F), -2(C) 25(F), -4(C) 86% 10 OVC023 N/A N/A N/A 19 F N/A 3009
18/11/21 07:28 240 10 N/A N/A 30.22 28(F), -2(C) 25(F), -4(C) 86% 10 OVC023 N/A N/A N/A 19 F N/A 3008
18/11/21 07:27 240 10 N/A N/A 30.22 28(F), -2(C) 25(F), -4(C) 86% 10 OVC023 N/A N/A N/A 19 F N/A 3007
18/11/21 07:26 240 10 N/A N/A 30.22 28(F), -2(C) 25(F), -4(C) 86% 10 OVC023 N/A N/A N/A 19 F N/A 3006
18/11/21 07:25 240 10 N/A N/A 30.22 28(F), -2(C) 25(F), -4(C) 86% 10 OVC023 N/A N/A N/A 19 F N/A 3005
18/11/21 07:24 240 09 N/A N/A 30.22 28(F), -2(C) 25(F), -4(C) 86% 10 OVC023 N/A N/A N/A 19 F N/A 3004
18/11/21 07:23 240 09 N/A N/A 30.22 28(F), -2(C) 25(F), -4(C) 86% 10 OVC023 N/A N/A N/A 19 F N/A 3003
18/11/21 07:22 240 10 N/A N/A 30.22 27(F), -3(C) 25(F), -4(C) 93% 10 OVC023 N/A N/A N/A 18 F N/A 3002
18/11/21 07:21 240 10 N/A N/A 30.22 27(F), -3(C) 25(F), -4(C) 93% 10 OVC023 N/A N/A N/A 18 F N/A 3001
18/11/21 07:20 240 10 N/A N/A 30.22 27(F), -3(C) 25(F), -4(C) 93% 10 OVC023 N/A N/A N/A 18 F N/A 3000
18/11/21 07:19 240 10 N/A N/A 30.22 27(F), -3(C) 25(F), -4(C) 93% 10 OVC023 N/A N/A N/A 18 F N/A 2999
18/11/21 07:18 240 09 N/A N/A 30.22 27(F), -3(C) 25(F), -4(C) 93% 10 OVC023 N/A N/A N/A 18 F N/A 2998
18/11/21 07:17 250 09 N/A N/A 30.22 27(F), -3(C) 25(F), -4(C) 93% 10 OVC023 N/A N/A N/A 18 F N/A 2997
18/11/21 07:16 240 09 N/A N/A 30.22 27(F), -3(C) 25(F), -4(C) 93% 10 OVC023 N/A N/A N/A 18 F N/A 2996
18/11/21 07:15 240 09 N/A N/A 30.22 27(F), -3(C) 25(F), -4(C) 93% 10 OVC023 N/A N/A N/A 18 F N/A 2995
18/11/21 07:14 250 09 N/A N/A 30.22 27(F), -3(C) 25(F), -4(C) 93% 10 OVC023 N/A N/A N/A 18 F N/A 2994
18/11/21 07:13 250 08 14 N/A 30.22 28(F), -2(C) 25(F), -4(C) 86% 10 OVC023 N/A N/A N/A 20 F N/A 2993
18/11/21 07:12 240 09 14 N/A 30.22 28(F), -2(C) 25(F), -4(C) 86% 10 OVC023 N/A N/A N/A 19 F N/A 2992
18/11/21 07:11 240 09 14 N/A 30.22 28(F), -2(C) 25(F), -4(C) 86% 10 OVC023 N/A N/A N/A 19 F N/A 2991
18/11/21 07:10 240 09 14 N/A 30.22 28(F), -2(C) 25(F), -4(C) 86% 10 OVC023 N/A N/A N/A 19 F N/A 2990
18/11/21 07:09 240 08 14 N/A 30.22 28(F), -2(C) 25(F), -4(C) 86% 10 OVC023 N/A N/A N/A 20 F N/A 2989
18/11/21 07:08 250 09 14 N/A 30.22 27(F), -3(C) 25(F), -4(C) 93% 10 OVC023 N/A N/A N/A 18 F N/A 2988
18/11/21 07:07 250 09 14 N/A 30.22 27(F), -3(C) 25(F), -4(C) 93% 10 OVC023 N/A N/A N/A 18 F N/A 2987
18/11/21 07:06 240 09 14 N/A 30.22 27(F), -3(C) 25(F), -4(C) 93% 10 OVC023 N/A N/A N/A 18 F N/A 2986
18/11/21 07:05 240 10 14 N/A 30.22 27(F), -3(C) 25(F), -4(C) 93% 10 OVC023 N/A N/A N/A 18 F N/A 2985
18/11/21 07:04 240 10 14 N/A 30.22 27(F), -3(C) 25(F), -4(C) 93% 10 OVC021 N/A N/A N/A 18 F N/A 2984
18/11/21 07:03 250 10 N/A N/A 30.22 27(F), -3(C) 25(F), -4(C) 93% 10 OVC021 N/A N/A N/A 18 F N/A 2983
18/11/21 07:02 250 11 15 N/A 30.22 27(F), -3(C) 25(F), -4(C) 93% 10 OVC021 N/A N/A N/A 17 F N/A 2982
18/11/21 07:01 250 11 15 N/A 30.22 27(F), -3(C) 25(F), -4(C) 93% 10 OVC021 N/A N/A N/A 17 F N/A 2981
18/11/21 07:00 250 10 15 N/A 30.22 27(F), -3(C) 25(F), -4(C) 93% 10 OVC021 N/A N/A N/A 18 F N/A 2980
18/11/21 06:59 250 09 15 N/A 30.22 27(F), -3(C) 25(F), -4(C) 93% 10 OVC021 N/A N/A N/A 18 F N/A 2979
18/11/21 06:58 240 09 15 N/A 30.22 27(F), -3(C) 25(F), -4(C) 93% 10 OVC021 N/A N/A N/A 18 F N/A 2978
18/11/21 06:57 240 08 15 N/A 30.22 27(F), -3(C) 25(F), -4(C) 93% 10 OVC021 N/A N/A N/A 19 F N/A 2977
18/11/21 06:56 250 08 15 N/A 30.22 27(F), -3(C) 25(F), -4(C) 93% 10 OVC021 N/A N/A N/A 19 F N/A 2976
18/11/21 06:55 250 10 15 N/A 30.22 27(F), -3(C) 25(F), -4(C) 93% 10 OVC021 N/A N/A N/A 18 F N/A 2975
18/11/21 06:54 240 12 15 N/A 30.22 27(F), -3(C) 25(F), -4(C) 93% 10 OVC021 N/A N/A N/A 16 F N/A 2974
18/11/21 06:53 240 11 15 N/A 30.22 27(F), -3(C) 25(F), -4(C) 93% 10 OVC021 N/A N/A N/A 17 F N/A 2973